STARLINK-34563, 64708

Orbit data source: Space-Track

STARLINK-34563, 64708 is a payload satellite owned by SpaceX/Seattle (US) in LEO that was launched on Sat, 28 Jun 2025 UTC via an FALCON 9 launch vehicle from the Air Force Western Test Range (AFWTR). Payload-class satellites include a variety of spacecraft equipped with specific instruments for various scientific and technological missions. These include communications satellites like Starlink; space stations such as the ISS; scientific satellites like the Hubble; Earth observation satellites from companies like Planet Labs, Umbra, and HawkEye 360; GPS; miniature CubeSats for education and research; and military/defense satellites.

Not visible in the next 10 days
Identifier
64708, 2025-142N
Orbit
LEO
Last TLE update
9 hours ago
Origin
Manufacturer
SpaceX/Seattle
Mission
Operational spacecraft
Bus & Motor
STARLINK V2MO, Unknown motor
Mass
575 kg wet, ~530 kg dry
Launch date (UTC)
2025-06-28 (1 week ago)
Launch vehicle
FALCON 9
Launch site
Air Force Western Test Range (AFWTR)
Object type
Payload
Rocket body
Debris
Shape & HBR
Unknown
Radar Cross Section
RCS unknown

Expand to show TLE details & history

TLE from 9 hours ago
0 STARLINK-34563
1 64708U 25142N   25186.58335648 -.01170461  00000-0 -47492-2 0  9993
2 64708  69.9950 231.3231 0003866 277.4037  60.3617 15.88629346  1975
Epoch: 2025-07-05T14:00Z
TLE epoch observation values (Epoch: 2025-07-05T14:00:01.999Z)
Latitude
-21.021°
Longitude
89.49875°
Altitude
312.35 km
Speed
7.721 km/s
True Right ascension
14h 53m 18s
True Declination
-20° 53' 54"
Sunlit
Object was in full shadow at epoch
Visualization orbit readout
Latitude
-69.63525°
Longitude
-6.3261°
Altitude
331.851 km
Speed
7.71 km/s
Apparent Right ascension
00h 16m 20s
Apparent Declination
-72° 47' 25"
Sunlit
Object is in daylight
Visualization observer readout
Local Sidereal Time
10:42:17
Azimuth
191.933° SSW
Elevation
-55.187°
Doppler factor
1
Orbital elements
Apogee altitude
306.575 km
Perigee altitude
301.408 km
Semi-major axis
6,682.129 km
Eccentricity
0.00039
Inclination
69.995°
RAAN
231.3231°
Arg. of periapsis
277.4037°
True anomaly
Unknown
Mean anomaly
60.3617°
Eccentric anomaly
Unknown
Mean motion
3.97348 °/min
Orbital period
90.6 mins
BSTAR
-0.0047492
Loading maneuver chart data...
Loading SW <> Apogee altitude chart data...
Loading historical data...
Loading historical data...
Loading historical data...
Loading historical data...
Loading historical data...
Loading historical data...
Loading historical data...

STARLINK-34563 Visibility

Observer location: undefined°, undefined°

STARLINK-34563 is likely not visible in the next few days
Span
Click to sort rows by Start time (UTC) header in descending order
Start Az.
Max El. time (UTC)
Max El. Az.
Max El.
End time (UTC)
End Az.
|